TimeEST,TemperatureF,Dew PointF,Humidity,Sea Level PressureIn,VisibilityMPH,Wind Direction,Wind SpeedMPH,Gust SpeedMPH,PrecipitationIn,Events,Conditions,WindDirDegrees,DateUTC
12:15 AM,33.1,25.7,74,30.34,10.0,Calm,Calm,-,N/A,,Clear,0,2013-03-09 05:15:00
12:35 AM,32.0,25.9,78,30.35,10.0,West,3.5,-,N/A,,Clear,260,2013-03-09 05:35:00
12:55 AM,32.2,25.7,77,30.34,10.0,Calm,Calm,-,N/A,,Clear,0,2013-03-09 05:55:00
1:15 AM,32.0,25.5,77,30.34,10.0,Calm,Calm,-,N/A,,Clear,0,2013-03-09 06:15:00
1:35 AM,32.0,25.7,78,30.34,10.0,Calm,Calm,-,N/A,,Clear,0,2013-03-09 06:35:00
1:55 AM,32.0,25.5,77,30.34,10.0,Calm,Calm,-,N/A,,Clear,0,2013-03-09 06:55:00
2:15 AM,30.2,25.3,82,30.34,10.0,Calm,Calm,-,N/A,,Clear,0,2013-03-09 07:15:00
2:35 AM,30.0,26.6,87,30.33,10.0,Calm,Calm,-,N/A,,Clear,0,2013-03-09 07:35:00
2:55 AM,29.8,26.6,88,30.32,10.0,ESE,3.5,-,N/A,,Clear,120,2013-03-09 07:55:00
3:15 AM,28.9,26.1,89,30.31,10.0,East,3.5,-,N/A,,Clear,100,2013-03-09 08:15:00
3:35 AM,27.3,25.5,93,30.30,10.0,Calm,Calm,-,N/A,,Clear,0,2013-03-09 08:35:00
3:55 AM,27.9,25.9,92,30.29,10.0,East,5.8,-,N/A,,Clear,90,2013-03-09 08:55:00
4:15 AM,28.6,26.6,92,30.28,10.0,ESE,4.6,-,N/A,,Clear,110,2013-03-09 09:15:00
4:35 AM,28.6,25.9,90,30.29,10.0,East,4.6,-,N/A,,Clear,100,2013-03-09 09:35:00
4:55 AM,28.0,25.3,90,30.29,10.0,East,4.6,-,N/A,,Clear,100,2013-03-09 09:55:00
5:15 AM,27.5,24.6,89,30.28,10.0,East,4.6,-,N/A,,Clear,90,2013-03-09 10:15:00
5:35 AM,27.0,24.6,91,30.29,10.0,East,3.5,-,N/A,,Clear,90,2013-03-09 10:35:00
5:55 AM,27.1,25.0,92,30.29,10.0,Calm,Calm,-,N/A,,Clear,0,2013-03-09 10:55:00
6:15 AM,27.3,25.7,94,30.30,10.0,Calm,Calm,-,N/A,,Clear,0,2013-03-09 11:15:00
6:35 AM,28.2,25.5,90,30.31,10.0,Calm,Calm,-,N/A,,Clear,0,2013-03-09 11:35:00
6:55 AM,26.4,23.9,90,30.31,10.0,Calm,Calm,-,N/A,,Clear,0,2013-03-09 11:55:00
7:15 AM,26.4,25.2,95,30.31,10.0,Calm,Calm,-,N/A,,Clear,0,2013-03-09 12:15:00
7:35 AM,26.6,25.2,94,30.31,10.0,Calm,Calm,-,N/A,,Clear,0,2013-03-09 12:35:00
7:55 AM,28.6,26.8,93,30.31,10.0,East,3.5,-,N/A,,Clear,80,2013-03-09 12:55:00
8:15 AM,30.7,28.2,90,30.31,10.0,East,3.5,-,N/A,,Clear,90,2013-03-09 13:15:00
8:35 AM,34.2,29.8,84,30.30,10.0,East,3.5,-,N/A,,Clear,90,2013-03-09 13:35:00
8:55 AM,35.8,29.7,78,30.30,10.0,ESE,6.9,-,N/A,,Clear,110,2013-03-09 13:55:00
9:15 AM,37.8,29.1,71,30.29,10.0,East,6.9,-,N/A,,Clear,100,2013-03-09 14:15:00
9:35 AM,39.9,29.5,66,30.29,10.0,East,6.9,-,N/A,,Clear,90,2013-03-09 14:35:00
9:55 AM,41.4,29.3,62,30.29,10.0,ESE,4.6,-,N/A,,Clear,110,2013-03-09 14:55:00
10:15 AM,43.2,29.7,59,30.29,10.0,ENE,3.5,-,N/A,,Clear,60,2013-03-09 15:15:00
10:35 AM,44.6,30.4,57,30.28,10.0,ENE,4.6,-,N/A,,Clear,60,2013-03-09 15:35:00
10:55 AM,46.8,30.9,54,30.28,10.0,ENE,3.5,-,N/A,,Clear,70,2013-03-09 15:55:00
11:15 AM,48.6,30.7,50,30.29,10.0,NE,3.5,-,N/A,,Clear,40,2013-03-09 16:15:00
11:35 AM,51.1,31.5,47,30.28,10.0,Calm,Calm,-,N/A,,Clear,0,2013-03-09 16:35:00
11:55 AM,52.9,31.6,44,30.27,10.0,East,4.6,-,N/A,,Clear,90,2013-03-09 16:55:00
12:15 PM,54.9,31.3,41,30.26,10.0,East,4.6,-,N/A,,Clear,90,2013-03-09 17:15:00
12:35 PM,56.7,32.0,39,30.24,10.0,SE,3.5,-,N/A,,Clear,130,2013-03-09 17:35:00
12:55 PM,57.4,30.6,36,30.24,10.0,ESE,4.6,-,N/A,,Clear,110,2013-03-09 17:55:00
1:15 PM,59.2,30.9,34,30.22,10.0,ESE,4.6,-,N/A,,Clear,110,2013-03-09 18:15:00
1:35 PM,60.4,29.5,31,30.21,10.0,SE,3.5,-,N/A,,Clear,140,2013-03-09 18:35:00
1:55 PM,60.4,26.8,28,30.20,10.0,South,4.6,-,N/A,,Clear,190,2013-03-09 18:55:00
2:15 PM,62.4,27.7,27,30.19,10.0,Calm,Calm,-,N/A,,Clear,0,2013-03-09 19:15:00
2:35 PM,61.5,27.5,28,30.19,10.0,Calm,Calm,-,N/A,,Clear,0,2013-03-09 19:35:00
2:55 PM,62.8,28.8,28,30.18,10.0,Calm,Calm,-,N/A,,Clear,0,2013-03-09 19:55:00
3:15 PM,62.6,27.1,26,30.17,10.0,Calm,Calm,-,N/A,,Clear,0,2013-03-09 20:15:00
3:35 PM,63.3,27.0,25,30.17,10.0,SSW,3.5,-,N/A,,Clear,210,2013-03-09 20:35:00
3:55 PM,63.9,28.2,26,30.17,10.0,Calm,Calm,-,N/A,,Clear,0,2013-03-09 20:55:00
4:15 PM,64.4,25.3,23,30.17,10.0,WSW,5.8,-,N/A,,Clear,240,2013-03-09 21:15:00
4:35 PM,64.2,24.1,22,30.17,10.0,WSW,4.6,-,N/A,,Clear,240,2013-03-09 21:35:00
4:55 PM,64.6,24.6,22,30.16,10.0,Calm,Calm,-,N/A,,Clear,0,2013-03-09 21:55:00
5:15 PM,64.2,25.0,23,30.15,10.0,South,3.5,-,N/A,,Clear,180,2013-03-09 22:15:00
5:35 PM,63.9,26.2,24,30.14,10.0,SSE,4.6,-,N/A,,Clear,160,2013-03-09 22:35:00
5:55 PM,62.4,28.9,28,30.14,10.0,SE,5.8,-,N/A,,Clear,140,2013-03-09 22:55:00
6:15 PM,61.0,28.0,29,30.13,10.0,SE,4.6,-,N/A,,Clear,130,2013-03-09 23:15:00
6:35 PM,61.0,27.3,28,30.14,10.0,Calm,Calm,-,N/A,,Clear,0,2013-03-09 23:35:00
6:55 PM,60.3,26.6,28,30.13,10.0,ESE,3.5,-,N/A,,Clear,110,2013-03-09 23:55:00
7:15 PM,59.2,26.6,29,30.13,10.0,Calm,Calm,-,N/A,,Clear,0,2013-03-10 00:15:00
7:35 PM,58.6,26.8,30,30.13,10.0,East,3.5,-,N/A,,Clear,100,2013-03-10 00:35:00
7:55 PM,56.8,28.2,33,30.14,10.0,Calm,Calm,-,N/A,,Clear,0,2013-03-10 00:55:00
8:15 PM,54.9,28.0,36,30.14,10.0,Calm,Calm,-,N/A,,Clear,0,2013-03-10 01:15:00
8:35 PM,56.8,27.3,32,30.14,2.5,Calm,Calm,-,N/A,,Haze,0,2013-03-10 01:35:00
8:55 PM,54.9,28.2,36,30.13,10.0,Calm,Calm,-,N/A,,Scattered Clouds,0,2013-03-10 01:55:00
9:15 PM,53.8,30.2,41,30.14,10.0,South,4.6,-,N/A,,Scattered Clouds,170,2013-03-10 02:15:00
9:35 PM,54.7,30.4,40,30.14,10.0,South,6.9,-,N/A,,Mostly Cloudy,190,2013-03-10 02:35:00
9:55 PM,57.0,28.8,34,30.14,10.0,SSW,6.9,-,N/A,,Overcast,200,2013-03-10 02:55:00
10:15 PM,57.4,29.1,34,30.14,10.0,SSW,8.1,-,N/A,,Overcast,200,2013-03-10 03:15:00
10:35 PM,57.2,28.8,34,30.14,10.0,SSW,6.9,-,N/A,,Overcast,210,2013-03-10 03:35:00
10:55 PM,57.2,28.4,33,30.14,10.0,SSW,4.6,-,N/A,,Mostly Cloudy,210,2013-03-10 03:55:00
11:15 PM,56.8,28.4,34,30.14,10.0,SSW,4.6,-,N/A,,Overcast,210,2013-03-10 04:15:00
11:35 PM,57.0,28.6,34,30.14,10.0,South,5.8,-,N/A,,Overcast,190,2013-03-10 04:35:00
11:55 PM,55.8,30.0,37,30.13,10.0,South,5.8,-,N/A,,Overcast,190,2013-03-10 04:55:00